sat.trackr.live / text

‹ back to catalog

STARLINK-35977

NORAD 66604 · 2025-270S

PAYLOAD ACTIVE UNKNOWN

§ Identity

Operator
Country
US
Launch date
2025-11-22
Launch site
AFETR
Launch vehicle
Mass (kg)
RCS (m²)

Purposes: comms

External: N2YO · Heavens-Above · Gunter

§ Orbital elements

Epoch: 2026-09-20T19:45:37.941984Z

Period
94.27 min
Inclination
43.0051°
Eccentricity
0.0001833
Mean motion
15.27594893 rev/d
Perigee alt
481.7 km
Apogee alt
484.3 km
Semi-major
6,861.1 km
B*
4.0727e-4
RAAN
33.7669°
Arg perigee
269.8126°
Mean anomaly
90.2516°
Rev number
4,755

§ Raw data

STARLINK-359771 66604U 25270S   26263.82335581  .00010967  00000+0  40727-3 0  99972 66604  43.0051  33.7669 0001833 269.8126  90.2516 15.27594893 47557

JSON: /api/v1/satellites/66604 · /tle

For live sub-satellite position, see the globe view (requires WebGL).

§ Visibility from observer

Set your observer location to see the next 7 days of passes ≥ 10°. The values pass through the URL so the page stays shareable.

No JS? Fill the form by hand. The geolocation button needs JavaScript.